Terminal Aerodrome Forecast
Issued by NWS Duluth, MN

Home | Current Version | Previous Version | Text Only | Print | Product List | Glossary On
Versions: 1 2 3 4 5 6 7 8 9 10 11 12 13 14 15 16 17 18 19 20 21 22 23 24 25 26 27 28 29 30 31 32
000
FTUS43 KDLH 201100
TAFINL
TAF
KINL 201136Z 2012/2112 13004KT P6SM SKC
     FM201600 19014KT P6SM SCT040 BKN100
     FM202300 21010KT P6SM VCTS SCT035CB BKN050
      TEMPO 2023/2103 5SM TSRA BKN020CB=

USA.gov is the U.S. government's official web portal to all federal, state and local government web resources and services.